Home > Weather > Metairie > Past weeks

Flag for USA Weather for the Past 2 Weeks in Metairie, Louisiana, USA

Now
73 °F

Clear.


Feels Like: 71 °F
Forecast: 73 / 84 °F
Wind: 7 mph from South

Location: New Orleans International Airport

Current Time: Apr 29, 2016 at 3:08:52 AM

Latest Report: Apr 29, 2016 at 1:53 AM


Visibility: 10 mi

Pressure: 29.92 "Hg

Humidity: 88%

Dew Point: 69 °F

Location of MetairieLocation

Historic Weather in Metairie — Graph

°F

Metairie Temperature Yesterday

Maximum temperature yesterday: 82 °F (at 9:53 AM)
Minimum temperature yesterday: 72 °F (at 12:53 PM)
Average temperature yesterday: 77 °F

High & Low Weather Summary for the Past Weeks

 TemperatureHumidityPressure
High85 °F (Apr 26, 1:53 PM)97% (Apr 22, 1:53 AM)30.24 "Hg (Apr 22, 1:53 AM)
Low63 °F (Apr 24, 5:53 AM)39% (Apr 23, 3:53 PM)29.70 "Hg (Apr 27, 3:53 PM)
Average73 °F74%29.99 "Hg
* Reported Apr 14 12:53 AM — Apr 29 12:53 AM, Metairie, Weather by CustomWeather, © 2016

Note: Actual official high and low records may vary slightly from our data, if they occured in-between our weather recording intervals... More about our weather records

Advertising

Metairie Weather History for the Previous 24 Hours

Scroll right to see more
 ConditionsComfort  
Time TempWeatherWind HumidityBarometerVisibility
12:53 AM
Fri, Apr 29
74 °FPassing clouds.7 mph85%29.93 "Hg10 mi
11:53 PM
Thu, Apr 28
74 °FPassing clouds.8 mph85%29.94 "Hg10 mi
10:53 PM75 °FPassing clouds.5 mph85%29.96 "Hg10 mi
9:53 PM75 °FPassing clouds.7 mph85%29.96 "Hg10 mi
8:53 PM76 °FPartly cloudy.7 mph85%29.94 "Hg10 mi
7:53 PM77 °FBroken clouds.10 mph82%29.93 "Hg10 mi
6:53 PM80 °FCloudy.16 mph81%29.93 "Hg9 mi
6:00 PM81 °FPartly sunny.9 mph79%29.91 "Hg10 mi
4:53 PM79 °FBroken clouds.9 mph79%29.91 "Hg10 mi
3:53 PM77 °FThunderstorms. Broken clouds.6 mph82%29.93 "Hg10 mi
2:53 PM77 °FBroken clouds.14 mph82%29.94 "Hg10 mi
2:02 PM73 °FThunderstorms. Fog.10 mph88%29.95 "Hg2 mi
12:53 PM72 °FLight rain. Mostly cloudy.15 mph87%29.95 "Hg10 mi
12:00 PM75 °FMostly cloudy.20 mph82%29.93 "Hg10 mi
10:53 AM81 °FMostly cloudy.13 mph77%29.92 "Hg10 mi
9:53 AM82 °FPartly sunny.9 mph79%29.90 "Hg10 mi
8:53 AM79 °FPartly sunny.12 mph84%29.89 "Hg8 mi
8:00 AM78 °FMostly cloudy.10 mph87%29.88 "Hg7 mi
6:53 AM77 °FPartly cloudy.12 mph90%29.86 "Hg8 mi
6:04 AM77 °FOvercast.12 mph90%29.83 "Hg8 mi
4:53 AM77 °FFog.12 mph90%29.83 "Hg6 mi
3:53 AM77 °FLight rain. Fog.6 mph90%29.82 "Hg6 mi
Weather by CustomWeather, © 2016

See weather overviewHow to use our weather pages